Regional Weather Roundup
Issued by NWS

Home | Current Version | Previous Version | Text Only | Print | Product List | Glossary On
Versions: 1 2 3 4 5 6 7 8 9 10 11 12 13 14 15 16 17 18 19 20 21 22 23 24 25 26 27 28 29 30 31 32 33 34 35 36 37 38 39 40 41 42 43 44 45 46 47 48 49 50
000
ASUS43 KLSX 010007
RWRMO

WEATHER SUMMARY FOR MISSOURI
NATIONAL WEATHER SERVICE SPRINGFIELD MO
700 PM CDT THU JUL 31 2014

NOTE: "FAIR" INDICATES FEW OR NO CLOUDS BELOW 12,000 FEET WITH NO
       SIGNIFICANT WEATHER AND/OR OBSTRUCTIONS TO VISIBILITY.
       CURRENT SKY AND/OR WEATHER CONDITIONS ARE NOT AVAILABLE FOR
       CHILLICOTHE AND FARMINGTON.

MOZ001>031-035>038-043-044-053-054-010100-
...NORTHERN AND WESTERN MISSOURI...

CITY           SKY/WX    TMP DP  RH WIND       PRES   REMARKS
KANSAS CTY INT PTSUNNY   80  57  45 N3        30.05F
6HR MIN TEMP:  78; 6HR MAX TEMP:  83;

KANSAS C DTWN  SUNNY     82  56  40 NE7       30.03F
6HR MIN TEMP:  80; 6HR MAX TEMP:  86;

LEE`S SUMMIT   SUNNY     80  57  45 E6        30.05F
6HR MIN TEMP:  79; 6HR MAX TEMP:  84;

ST JOSEPH      PTSUNNY   78  59  51 S5        30.04F
6HR MIN TEMP:  78; 6HR MAX TEMP:  83;

CHILLICOTHE      N/A     82  58  43 CALM      30.05F
6HR MIN TEMP:  81; 6HR MAX TEMP:  85;

KIRKSVILLE     SUNNY     82  57  42 CALM      30.06F
6HR MIN TEMP:  80; 6HR MAX TEMP:  84;


$$
MOZ066>068-077>081-088>096-101>105-010100-
...SOUTHWEST MISSOURI...

CITY           SKY/WX    TMP DP  RH WIND       PRES   REMARKS
SPRINGFIELD    MOSUNNY   76  65  68 SW8       30.05F
6HR MIN TEMP:  76; 6HR MAX TEMP:  81;

JOPLIN         MOSUNNY   80  64  58 SE6       30.04F
6HR MIN TEMP:  77; 6HR MAX TEMP:  83;


$$
MOZ032>034-039>042-045>050-055>058-069>072-010100-
...CENTRAL MISSOURI...

CITY           SKY/WX    TMP DP  RH WIND       PRES   REMARKS
COLUMBIA       SUNNY     83  56  39 N7        30.05S
6HR MIN TEMP:  81; 6HR MAX TEMP:  86;

JEFFERSON CITY SUNNY     84  55  36 NE6       30.02S
6HR MIN TEMP:  81; 6HR MAX TEMP:  86;

ROLLA          SUNNY     82  51  34 E5        30.03F
6HR MIN TEMP:  81; 6HR MAX TEMP:  85;

SEDALIA        SUNNY     79  59  50 N7        30.05F
6HR MIN TEMP:  79; 6HR MAX TEMP:  85;

WHITEMAN AFB   SUNNY     80  46  30 NE6       30.04F
OSAGE BEACH      N/A     82  55  39 N3        30.03S

$$
MOZ051-052-059>065-010100-
...EAST CENTRAL MISSOURI...

CITY           SKY/WX    TMP DP  RH WIND       PRES   REMARKS
ST LOUIS INTL  MOSUNNY   83  58  42 E8        30.04F
6HR MIN TEMP:  83; 6HR MAX TEMP:  86;

SPIRIT OF STL  MOSUNNY   83  56  39 NE8       30.02S
6HR MIN TEMP:  82; 6HR MAX TEMP:  87;

ST CHARLES     SUNNY     81  60  48 NE6       30.03S
6HR MIN TEMP:  81; 6HR MAX TEMP:  85;


$$
MOZ072>076-082>087-097>100-106>115-010100-
...SOUTH CENTRAL AND SOUTHEAST MISSOURI...

CITY           SKY/WX    TMP DP  RH WIND       PRES   REMARKS
CAPE GIRARDEAU PTSUNNY   75  65  70 SW6       30.06F
6HR MIN TEMP:  75; 6HR MAX TEMP:  80;

FARMINGTON     MOSUNNY   79  63  57 S7        30.08R
6HR MIN TEMP:  79; 6HR MAX TEMP:  84;

POPLAR BLUFF   PTSUNNY   73  64  73 SW8       30.05F
6HR MIN TEMP:  72; 6HR MAX TEMP:  78;

WEST PLAINS    MOSUNNY   73  65  75 S5        30.08F
6HR MIN TEMP:  72; 6HR MAX TEMP:  77;


$$


USA.gov is the U.S. government's official web portal to all federal, state and local government web resources and services.